Location: Newark
(34.0000°S, 64.0000°W)
Time: 13:48:14
(UTC+00:00)

Hubble Space Telescope - Visible Passes

Search period start: 28 February 2021 00:00
Search period end: 10 March 2021 00:00
Orbit: 536 x 539 km, 28.5° (Epoch: 28 February)

Date Brightness Start Highest point End Pass type
(mag) Time Alt. Az. Time Alt. Az. Time Alt. Az.
07 Mar 3.2 09:35:36 10° NNW 09:38:04 15° NNE 09:40:33 10° ENE visible
08 Mar 2.9 09:24:12 10° NNW 09:27:06 18° NNE 09:30:00 10° ENE visible
09 Mar 2.6 09:13:05 11° NNW 09:16:09 21° NNE 09:19:22 10° ENE visible
